Flag for Canada Weather past 2 weeks in Whitby, Ontario, Canada

Now
90 °F

Broken clouds.


Feels Like: 91 °F
Forecast: 64 / 82 °F
Wind: 9 mph from Northwest

Location: Toronto Buttonville

Current Time: Sep 2, 2015 at 3:45:15 PM

Latest Report: Sep 2, 2015 at 3:00 PM


Visibility: 10 mi

Pressure: 29.95 "Hg

Humidity: 43%

Dew point: 64 °F

Location of WhitbyLocation

Historic Weather in Whitby — Graph

°F

Whitby temperature yesterday

Maximum temperature yesterday: 86 °F (at 3:00 PM)
Minimum temperature yesterday: 64 °F (at 6:00 AM)
Average temperature yesterday: 73 °F

Past Weeks' High & Low Weather Summary

 TemperatureHumidityPressure
High88 °F (Sep 2, 2:00 PM)100% (Aug 29, 6:00 AM)30.23 "Hg (Aug 29, 6:00 AM)
Low50 °F (Aug 28, 5:00 AM)36% (Aug 22, 3:00 PM)29.71 "Hg (Aug 20, 7:00 AM)
Average68 °F75%30.00 "Hg
* Reported Aug 18 2:00 PM — Sep 2 2:00 PM, Whitby, Weather by CustomWeather, © 2015

Note: Actual official high and low records may vary slightly from our data, if they occured in-between our weather recording intervals... More about our weather records

Advertising

Whitby weather history for previous 24 hours

 ConditionsComfort  
Time TempWeatherWind HumidityBarometerVisibility
2:00 PM
Wed, Sep 2
88 °FPartly sunny.7 mph49%29.96 "Hg10 mi
1:00 PM86 °FScattered clouds.3 mph55%29.98 "Hg10 mi
12:00 PM86 °FPassing clouds.6 mph59%30.00 "Hg8 mi
11:00 AM81 °FPassing clouds.5 mph66%30.02 "Hg7 mi
10:00 AM75 °FSunny.3 mph78%30.02 "Hg7 mi
9:00 AM73 °FSunny.3 mph83%30.03 "Hg7 mi
8:00 AM70 °FPassing clouds.2 mph88%30.03 "Hg8 mi
7:00 AM66 °FPassing clouds.No wind94%30.03 "Hg8 mi
6:00 AM68 °FPassing clouds.No wind88%30.02 "Hg7 mi
5:00 AM66 °FPassing clouds.No wind94%30.02 "Hg7 mi
4:00 AM66 °FPassing clouds.2 mph88%30.02 "Hg10 mi
3:00 AM68 °FClear.No wind88%30.03 "Hg8 mi
2:00 AM68 °FFog.No wind94%30.03 "Hg6 mi
1:00 AM68 °FClear.No wind94%30.04 "Hg9 mi
12:00 AM70 °FClear.3 mph88%30.03 "Hg12 mi
11:00 PM
Tue, Sep 1
73 °FClear.3 mph78%30.03 "Hg10 mi
10:00 PM73 °FClear.2 mph83%30.03 "Hg11 mi
9:00 PM77 °FPassing clouds.2 mph74%30.03 "Hg10 mi
8:00 PM77 °FScattered clouds.6 mph74%30.01 "Hg10 mi
7:00 PM81 °FOvercast.10 mph62%30.01 "Hg10 mi
6:00 PM84 °FOvercast.7 mph58%30.01 "Hg10 mi
5:00 PM84 °FOvercast.9 mph58%30.01 "Hg10 mi
4:00 PM86 °FOvercast.12 mph55%30.02 "Hg10 mi
3:00 PM86 °FOvercast.8 mph52%30.03 "Hg10 mi
Weather by CustomWeather, © 2015

See weather overviewHow to use our weather pages